Location: Chiroubles
(46.1812°N, 4.6660°E)
Time: 22:48:11
(UTC+00:00)

SR - Pass Details

Date: 30 November 2020
Orbit: 575 x 880 km, 66.7° (Epoch: 24 January)

Event Time Altitude Azimuth Distance (km) Brightness Sun altitude
Rises 17:01:05 0° 186° (S) 2,790 ? -10.7°
Reaches altitude 10° 17:03:25 10° 176° (S) 1,916 ? -11.1°
Maximum altitude 17:07:14 32° 113° (ESE) 1,055 ? -11.7°
Enters shadow 17:09:59 17° 60° (ENE) 1,596 ? -12.2°
